Regional Weather Roundup
Issued by NWS Grand Forks, ND

Home | Current Version | Previous Version | Text Only | Print | Product List | Glossary Off
Versions: 1 2 3 4 5 6 7 8 9 10 11 12 13 14 15 16 17 18 19 20 21 22 23 24 25 26 27 28 29 30 31 32 33 34 35 36 37 38 39 40 41 42 43 44 45 46 47 48 49 50

000
ASUS43 KFGF 280910
RWRFGF
PRAIRIE TO PINES  WEATHER ROUNDUP
NATIONAL WEATHER SERVICE EASTERN NORTH DAKOTA/GRAND FORKS ND
300 AM CST FRI NOV 28 2014

 **SATELLITE DATA USED TO AUGMENT SKY COVER AT AUTOMATED STATIONS**
 *****  WEATHER ACROSS EASTERN NORTH DAKOTA  *****

CITY           SKY/WX    TMP DP  RH WIND       PRES   REMARKS
GRAND FORKS    CLOUDY    11   6  81 SE9       30.05F WCI  -2
GRAND FRKS AFB CLOUDY    10   7  85 SE7       30.05S WCI   0
GRAND FRKS NWS   N/A     10 N/A N/A SE10        N/A  WCI  -3
DEVILS LAKE    CLOUDY     9  -4  56 SE12      29.94S WCI  -6
FARGO          CLOUDY    13   6  74 SE9G20    30.02F WCI   1
WAHPETON ARPT  CLOUDY    10   5  79 SE16G23   30.01F WCI  -7
$$

 ***** WEATHER ACROSS CENTRAL AND WESTERN NORTH DAKOTA  *****

CITY           SKY/WX    TMP DP  RH WIND       PRES   REMARKS
BISMARCK       PTCLDY     7   3  84 E9        29.86S WCI  -7
MINOT          CLOUDY     9   4  80 E12       29.86S WCI  -6
JAMESTOWN      CLOUDY     7   3  84 SE8       29.93R WCI  -6
MINOT AFB      CLOUDY     9   5  85 SE12      29.88R WCI  -6
GARRISON         N/A     11   7  84 E10       29.84R WCI  -3
WILLISTON      MIX PCPN  18  14  84 E7        29.77S FOG     WCI   9
DICKINSON      CLOUDY    20  17  88 E8        29.68F WCI  10
HETTINGER      CLOUDY    25  22  88 S5        29.73R WCI  19
$$

 *****  OTHER AIRPORT OBSERVATIONS IN OUR AREA  *****

CITY           SKY/WX    TMP DP  RH WIND       PRES   REMARKS
WALHALLA       FLURRIES   7   5  92 E6        30.06S WCI  -3
GRAFTON AIRPOR FLURRIES   9   5  85 E6        30.08S WCI  -1
VALLEY CITY AR CLOUDY     7   5  92 SE10      29.95S WCI  -8
CANDO          CLOUDY     9   5  85 SE9       29.97R WCI  -5
CAVALIER APRT  FLURRIES   9   5  85 SE6       30.07S WCI  -1
GWINNER        CLOUDY     9   3  78 SE15      29.96R WCI  -8
SHEYENNE NWR     N/A      9   3  77 SE12      29.95S WCI  -6
ROLLA          LGT SNOW   7   3  85 E9        29.93R WCI  -7
 ***** THE ABOVE OBSERVATIONS ARE NON NWS ARE NOT QUALITY
       CONTROLLED AND MAY MIS-REPORT RAIN FOR SNOW...
$$

  *****  WEATHER ACROSS NORTHERN MINNESOTA  *****

CITY           SKY/WX    TMP DP  RH WIND       PRES   REMARKS
FLAG ISLAND    PTCLDY     3  -2  78 SE3       30.09F
WARROAD        CLOUDY     7   1  78 E5        30.10S WCI  -2
ROSEAU         CLOUDY     9   1  72 E3        30.10R
HALLOCK        FLURRIES  10   3  72 E6        30.08F WCI   1
THF RVR FALLS  CLOUDY    10   7  85 E10       30.06S WCI  -3
BAUDETTE       CLOUDY     5  -1  76 SE6       30.09F WCI  -6
WASKISH        FLURRIES   9   3  78 CALM      30.09F
CROOKSTON      FLURRIES  12   7  79 SE8       30.06F WCI   1
STEPHEN NDAWN    N/A     10   5  79 SE6         N/A  WCI   1
GREENBUSH NDAW   N/A      9   3  78 E7          N/A  WCI  -3
$$
  *****  WEATHER ACROSS CENTRAL AND WEST MINNESOTA  *****

CITY           SKY/WX    TMP DP  RH WIND       PRES   REMARKS
FOSSTON        FLURRIES   9   3  78 E6        30.03F WCI  -1
BEMIDJI        CLOUDY     7   2  80 SE8       30.05S WCI  -6
PARK RAPIDS    CLOUDY     7   2  80 SE8       30.02F WCI  -6
ELBOW LAKE     CLOUDY     9   3  78 SE17G24   29.99F WCI -10
WADENA         CLOUDY     7   1  78 SE9       30.02F WCI  -7
DETROIT LAKES  MOCLDY    10   7  85 SE13      30.00F WCI  -5
MOORHEAD       MIX PCPN  12  10  92 SE12G18   30.02F WCI  -2
FERGUS FALLS   FLURRIES  10   3  72 SE15      30.04F WCI  -6
MORRIS MN      MOCLDY     9   1  72 SE22      30.01F WCI -11
STAPLES        CLOUDY     7   1  78 SE8       30.03F WCI  -6
$$
  *****  WEATHER ELSEWHERE ACROSS MINNESOTA  *****

CITY           SKY/WX    TMP DP  RH WIND       PRES   REMARKS
DULUTH         LGT SNOW   6  -1  73 SE6       30.12F WCI  -4
INTRNTL FALLS  CLOUDY     4  -3  73 SE3       30.12F
ELY            CLOUDY     3  -2  78 CALM      30.12F
CLOQUET        FLURRIES   7   1  78 E5        30.13F WCI  -2
WHEATON        PTCLDY     7   1  78 SE18      30.00F WCI -12
BRAINERD       CLOUDY     6   2  83 SE8       30.09F WCI  -7
HIBBING        LGT SNOW   7  -1  70 SE7       30.11F WCI  -5
ALEXANDRIA     CLOUDY     7   3  84 SE14      30.02F WCI -10
SAINT CLOUD    CLOUDY     9   3  77 SE9       30.09F WCI  -4
MINNEAPOLIS    CLOUDY     8   5  87 E15       30.14F WCI  -9
$$

  *****  WEATHER ACROSS SOUTH DAKOTA  *****

CITY           SKY/WX    TMP DP  RH WIND       PRES   REMARKS
SIOUX FALLS    CLEAR     18  13  80 SE9       29.91F WCI   7
BROOKINGS      NOT AVBL
WATERTOWN      CLEAR     13   8  81 SE9       29.88F WCI   1
HURON          CLEAR     18  13  80 SE10      29.85F WCI   6
SISSETON         N/A      6   3  87 S12       29.95F WCI  -9
ABERDEEN       PTCLDY    10   6  84 NE5       29.90S WCI   2
MITCHELL       PTCLDY    22  17  81 SE9       29.87S WCI  12
PIERRE         CLOUDY    20  17  88 NE5       29.80R WCI  13
MOBRIDGE       PTCLDY    12   7  80 E13       29.79F WCI  -3
RAPID CITY     MOCLDY    38  27  64 E3        29.75F
$$

  *****  SOME WEATHER IN NEARBY STATES *****

CITY           SKY/WX    TMP DP  RH WIND       PRES   REMARKS
GLASGOW MT     PTCLDY    21  18  88 E12       29.66F WCI   9
GREAT FALLS MT MOCLDY    46  35  65 SW16      29.61F
CHEYENNE WY    MOCLDY    50  16  25 SW8       30.02R
SCOTTSBLUFF NE CLEAR     32  25  75 E7        29.91F
OMAHA NE       CLEAR     27  21  78 S12       30.03F WCI  17
DES MOINES IA  PTCLDY    20  13  74 SE13      30.12F WCI   7
DAVENPORT IA   CLOUDY    15   8  73 SE7       30.31F WCI   5
CHICAGO IL     CLOUDY    19  11  70 SW5       30.36F WCI  12
EAU CLAIRE WI  LGT SNOW   9   4  80 SE7       30.22F VSB 1   WCI  -2
LA CROSSE WI   LGT SNOW  14   8  77 SE8       30.28F WCI   3
$$

  *****  SOME NATIONAL WEATHER *****

CITY           SKY/WX    TMP DP  RH WIND       PRES   REMARKS
LA GUARDIA NY  CLEAR     32  23  69 NW14      30.08S WCI  22
RALEIGH NC     CLEAR     30  21  69 CALM      30.29S
ATLANTA GA     CLEAR     30  21  69 NW8       30.36S WCI  22
NEW ORLEANS LA CLEAR     47  35  63 NE12      30.41F
OKLAHOMA CITY  MOCLDY    45  25  45 S15       30.19F
ALBUQUERQUE NM MOCLDY    36  19  50 CALM      30.31S
SALT LAKE CITY MOCLDY    44  25  47 E8        30.07F
LOS ANGELES CA CLEAR     60  44  55 CALM      30.00F
BOISE ID       MOCLDY    41  40  96 SE3       29.94F
SEATTLE WA     LGT RAIN  53  50  89 S15       29.67F
$$

*** WEATHER ACROSS MANITOBA...SASKATCHEWAN AND ONTARIO ***
                ***ONTARIO***

CITY           SKY/WX    TMP DP  RH WIND       PRES   REMARKS
GERALDTON      PTCLDY   -17 -24  70 S1        30.14F
THUNDER BAY    PTCLDY    -4  -8  84 SW5       30.24F WCI -15
SIOUX LOOKOUT  CLEAR     -9 -13  84 S3        30.11F
TORONTO        PTCLDY    19  14  79 W10       30.19S WCI   8
BIG TROUT LK   CLEAR     -8 -11  84 W8        30.06S WCI -23
PICKLE LAKE    NOT AVBL
DRYDEN         CLEAR     -2  -8  78 S7        30.10F WCI -16
KENORA         MOCLDY    -2  -8  78 S5        30.09S WCI -12
$$
                *** MANITOBA***

CITY           SKY/WX    TMP DP  RH WIND       PRES   REMARKS
BRANDON        LGT SNOW   9   5  85 E12       30.00S WCI  -6
DAUPHIN        FLURRIES   5   1  85 NE13      30.10R WCI -12
ISLAND LAKE    CLEAR     -9 -17  70 NW5       30.13R WCI -21
PILOT MOUND      N/A      7   3  85 E8          N/A  WCI  -6
THE PAS        NOT AVBL
THOMPSON       CLEAR    -26 -31  75 W5        30.18R WCI -40
WINNIPEG       MOCLDY     3  -2  78 E5        30.11F WCI  -6
LYNN LAKE      CLEAR    -20 -24  83 NW8       30.15S WCI -39
CHURCHILL      CRYSTALS -11 -17  77 NW20G29   30.05R BLWGSNOWWCI -36
GILLAM         CLEAR    -17 -24  70 W10       30.13R WCI -37
$$
                ***SASKATCHEWAN***

CITY           SKY/WX    TMP DP  RH WIND       PRES   REMARKS
ESTEVAN        NOT AVBL
KINDERSLEY     LGT SNOW   9   3  78 E25       29.68F VSB 3/4 WCI -13
LLOYDMINSTER   LGT SNOW  -2  -6  84 E22       29.82F VSB 1   WCI -26
PRINCE ALBERT  LGT SNOW   0  -4  85 NE20      30.04F WCI -22
REGINA         LGT SNOW  10   7  85 E17       29.83S DRFTSNOWWCI  -7
YORKTON        FLURRIES   9   7  92 NE8       29.97S WCI  -4
N. BATTLEFORD  LGT SNOW   3  -2  78 E25G33    29.86F WCI -20
LA RONGE       CLEAR    -13 -17  84 N6        30.16F WCI -27
SASKATOON      LGT SNOW   3  -2  78 E22G29    29.90F BLWGSNOWWCI -19
SWIFT CURRENT  LGT SNOW  12  10  92 E21       29.64F WCI  -6
$$
NOTE: THESE ARE AUTOMATED STATIONS WITH LIMITED QUALITY CONTROL
      "FAIR" INDICATES FEW OR NO CLOUDS BELOW 12,000 FEET WITH NO
      SIGNIFICANT WEATHER AND/OR OBSTRUCTIONS TO VISIBILITY.
      SKY/WX - SKY CONDITION AND SIGNIFICANT WEATHER.
      TMP - AIR TEMPERATURE.    DP   - DEWPOINT TEMPERATURE.
      RH  - RELATIVE HUMIDITY.  PRES - PRESSURE.
      HX  - HEAT INDEX.         WCI  - WIND CHILL INDEX.
$



USA.gov is the U.S. government's official web portal to all federal, state and local government web resources and services.